Weather History for Lynchburg, VA

Change the Weather History Date:

Saturday, April 26, 2014

  Actual Average Record
Temperature  
Mean Temperature 63 °F 58 °F  
Max Temperature 81 °F 71 °F 93 °F (1915)
Min Temperature 44 °F 45 °F 30 °F (1934)
Degree Days  
Heating Degree Days 2 8  
Month to date heating degree days 175 276  
Since 1 July heating degree days 4339 4295  
Cooling Degree Days 0 1  
Month to date cooling degree days 19 14  
Year to date cooling degree days 19 16  
Growing Degree Days 12 (Base 50)    
Moisture  
Dew Point 38 °F    
Average Humidity 46    
Maximum Humidity 70    
Minimum Humidity 21    
Precipitation  
Precipitation 0.00 in 0.11 in 3.67 in (1978)
Month to date precipitation 3.60 2.88  
Year to date precipitation 13.61 12.53  
Snow  
Snow 0.00 in - - ()
Month to date snowfall T  
Since 1 July snowfall 21.4  
Snow Depth 0.00 in    
Sea Level Pressure  
Sea Level Pressure 29.88 in    
Wind  
Wind Speed 6 mph (WSW)    
Max Wind Speed 16 mph    
Max Gust Speed 25 mph    
Visibility 10 miles    
Events      
T = Trace of Precipitation, MM = Missing Value Source: NWS Daily Summary

Daily Weather History Graph

Daily Weather History Graph

Search for Another Location

Airport:

Trip Planner

Search our weather history database for the weather conditions in past years. The results will help you decide how hot, cold, wet, or windy it might be!

Date:

Astronomy

Apr. 26, 2014 Rise Set
Actual Time 6:27 AM EDT 8:01 PM EDT
Civil Twilight 6:00 AM EDT 8:29 PM EDT
Nautical Twilight 5:26 AM EDT 9:03 PM EDT
Astronomical Twilight 4:51 AM EDT 9:38 PM EDT
Moon 4:47 AM EDT (4/26) 5:31 PM EDT (4/26)
Length of Visible Light 14h 29m
Length of Day
13h 34m
Waning Crescent, 8% of the Moon is Illuminated
Apr 26
Waning Crescent
Apr 29
New
May 6
First Quarter
May 14
Full
May 21
Last Quarter

Hourly Weather History & Observations

Time (EDT) Temp. Windchill Dew Point Humidity Pressure Visibility Wind Dir Wind Speed Gust Speed Precip Events Conditions
12:54 AM 59.0 °F - 41.0 °F 51% 29.86 in 10.0 mi NW 4.6 mph - N/A   Clear
1:54 AM 54.0 °F - 37.9 °F 55% 29.87 in 10.0 mi NW 3.5 mph - N/A   Clear
2:10 AM 57.2 °F - 30.2 °F 36% 29.88 in 7.0 mi Variable 5.8 mph 17.3 mph N/A   Partly Cloudy
2:54 AM 55.0 °F - 33.1 °F 43% 29.87 in 10.0 mi South 8.1 mph - N/A   Clear
3:54 AM 53.1 °F - 34.0 °F 48% 29.88 in 10.0 mi Variable 3.5 mph - N/A   Clear
4:54 AM 46.9 °F - 36.0 °F 66% 29.88 in 10.0 mi SW 4.6 mph - N/A   Clear
5:54 AM 45.0 °F 43.5 °F 36.0 °F 71% 29.90 in 10.0 mi Variable 3.5 mph - N/A   Clear
6:54 AM 52.0 °F - 37.0 °F 57% 29.93 in 10.0 mi SW 5.8 mph - N/A   Clear
7:54 AM 54.0 °F - 39.9 °F 59% 29.96 in 10.0 mi SW 6.9 mph - N/A   Clear
8:54 AM 57.9 °F - 43.0 °F 58% 29.96 in 10.0 mi SSW 8.1 mph - N/A   Clear
9:54 AM 64.0 °F - 42.1 °F 45% 29.94 in 10.0 mi SW 9.2 mph - N/A   Clear
10:54 AM 66.0 °F - 42.1 °F 42% 29.94 in 10.0 mi SW 9.2 mph 18.4 mph N/A   Clear
11:54 AM 70.0 °F - 43.0 °F 38% 29.93 in 10.0 mi WSW 8.1 mph - N/A   Clear
12:54 PM 73.0 °F - 44.1 °F 35% 29.89 in 10.0 mi SW 10.4 mph 19.6 mph N/A   Clear
1:54 PM 75.9 °F - 42.1 °F 30% 29.88 in 10.0 mi West 8.1 mph - N/A   Mostly Cloudy
2:54 PM 78.1 °F - 41.0 °F 27% 29.86 in 10.0 mi WSW 12.7 mph 19.6 mph N/A   Partly Cloudy
3:54 PM 79.0 °F - 39.9 °F 25% 29.84 in 10.0 mi SW 8.1 mph 17.3 mph N/A   Scattered Clouds
4:54 PM 80.1 °F - 37.9 °F 22% 29.83 in 10.0 mi Variable 6.9 mph 20.7 mph N/A   Scattered Clouds
5:54 PM 80.1 °F - 37.0 °F 21% 29.84 in 10.0 mi Variable 4.6 mph 21.9 mph N/A   Scattered Clouds
6:54 PM 79.0 °F - 36.0 °F 21% 29.83 in 10.0 mi WNW 9.2 mph 17.3 mph N/A   Clear
7:54 PM 72.0 °F - 37.0 °F 28% 29.84 in 10.0 mi Calm Calm - N/A   Clear
8:54 PM 69.1 °F - 37.0 °F 31% 29.86 in 10.0 mi Calm Calm - N/A   Clear
9:54 PM 60.1 °F - 39.0 °F 46% 29.88 in 10.0 mi WSW 3.5 mph - N/A   Clear
10:54 PM 68.0 °F - 36.0 °F 31% 29.88 in 10.0 mi West 6.9 mph - N/A   Clear
11:54 PM 66.9 °F - 36.0 °F 32% 29.88 in 10.0 mi West 5.8 mph - N/A   Clear